TimeEST,TemperatureF,Dew PointF,Humidity,Sea Level PressureIn,VisibilityMPH,Wind Direction,Wind SpeedMPH,Gust SpeedMPH,PrecipitationIn,Events,Conditions,WindDirDegrees,DateUTC
12:51 AM,32.0,23.0,69,29.74,5.0,NNW,12.7,-,0.00,Snow,Light Snow,330,2013-03-03 05:51:00
1:51 AM,30.9,21.9,69,29.73,6.0,NW,12.7,-,0.00,Snow,Light Snow,320,2013-03-03 06:51:00
2:51 AM,30.9,19.9,64,29.72,7.0,NW,15.0,-,0.00,Snow,Light Snow,310,2013-03-03 07:51:00
3:51 AM,30.0,19.9,66,29.72,9.0,NW,13.8,-,0.00,Snow,Light Snow,320,2013-03-03 08:51:00
4:51 AM,30.9,18.0,59,29.73,9.0,NW,15.0,-,0.00,Snow,Light Snow,320,2013-03-03 09:51:00
5:51 AM,30.0,18.0,61,29.73,10.0,NNW,15.0,-,N/A,,Mostly Cloudy,330,2013-03-03 10:51:00
6:51 AM,30.0,17.1,59,29.74,10.0,NNW,16.1,-,N/A,,Mostly Cloudy,330,2013-03-03 11:51:00
7:51 AM,30.0,17.1,59,29.74,10.0,NW,12.7,-,N/A,,Mostly Cloudy,320,2013-03-03 12:51:00
8:51 AM,30.2,17.6,60,29.74,10.0,NW,11.5,-,N/A,,Mostly Cloudy,310,2013-03-03 13:51:00
9:51 AM,30.9,16.0,54,29.73,10.0,NW,15.0,-,N/A,,Mostly Cloudy,310,2013-03-03 14:51:00
10:51 AM,32.0,18.0,56,29.73,10.0,WNW,12.7,-,N/A,,Mostly Cloudy,300,2013-03-03 15:51:00
11:51 AM,33.1,18.0,54,29.72,10.0,NW,15.0,-,N/A,,Mostly Cloudy,310,2013-03-03 16:51:00
12:51 PM,35.1,17.1,48,29.69,10.0,NW,11.5,-,N/A,,Mostly Cloudy,320,2013-03-03 17:51:00
1:51 PM,37.0,16.0,42,29.67,10.0,NW,10.4,19.6,N/A,,Mostly Cloudy,310,2013-03-03 18:51:00
2:51 PM,39.2,17.6,42,29.66,10.0,WNW,12.7,21.9,N/A,,Mostly Cloudy,290,2013-03-03 19:51:00
3:51 PM,39.9,19.0,43,29.66,10.0,NW,15.0,25.3,N/A,,Mostly Cloudy,310,2013-03-03 20:51:00
4:51 PM,37.4,19.4,48,29.67,10.0,NW,18.4,24.2,N/A,,Mostly Cloudy,310,2013-03-03 21:51:00
5:51 PM,36.0,19.0,50,29.69,10.0,NW,17.3,-,N/A,,Mostly Cloudy,320,2013-03-03 22:51:00
6:51 PM,35.1,19.9,54,29.71,10.0,WNW,16.1,24.2,N/A,,Mostly Cloudy,300,2013-03-03 23:51:00
7:51 PM,34.0,18.0,52,29.73,10.0,NW,17.3,-,N/A,,Overcast,320,2013-03-04 00:51:00
8:51 PM,33.8,17.6,52,29.75,10.0,NW,19.6,28.8,N/A,,Scattered Clouds,320,2013-03-04 01:51:00
9:51 PM,32.0,17.1,54,29.75,10.0,NW,17.3,-,N/A,,Overcast,310,2013-03-04 02:51:00
10:51 PM,30.9,17.1,57,29.75,10.0,WNW,18.4,26.5,N/A,,Partly Cloudy,300,2013-03-04 03:51:00
11:51 PM,30.0,16.0,56,29.76,10.0,NW,19.6,28.8,N/A,,Mostly Cloudy,310,2013-03-04 04:51:00